Location: Newark
(44.9333°N, 0.5667°E)
Time: 01:29:59
(UTC+00:00)

N. Korean satellite - Pass Details

Date: 17 December 2019
Orbit: 454 x 507 km, 97.2° (Epoch: 23 January)

Event Time Altitude Azimuth Distance (km) Brightness Sun altitude
Rises 17:19:21 0° 181° (S) 2,592 10.6 -10.5°
Reaches altitude 10° 17:21:30 10° 188° (S) 1,708 9.7 -10.9°
Maximum altitude 17:25:02 44° 261° (W) 704 7.9 -11.5°
Drops below altitude 10° 17:28:33 10° 335° (NNW) 1,699 9.4 -12.0°
Sets 17:30:42 0° 342° (NNW) 2,578 10.2 -12.4°
